Hourly Weather Bolshoy Tolkay

Today, 24 July, Saturday

Time Temperature Precipitation Wind Pressure Humidity
00:00 +20°C° 0 mm 1 mps 745 mmHg 55%
01:00 +19°C° 0 mm 1 mps 745 mmHg 59%
02:00 +18°C° 0 mm 1 mps 745 mmHg 64%
03:00 +16°C° 0 mm 1 mps 745 mmHg 68%
04:00 +18°C° 0 mm 1 mps 746 mmHg 63%
05:00 +19°C° 0 mm 1 mps 746 mmHg 59%
06:00 +21°C° 0 mm 1 mps 746 mmHg 54%
07:00 +21°C° 0 mm 2 mps 746 mmHg 48%
08:00 +24°C° 0 mm 2 mps 746 mmHg 41%
09:00 +25°C° 0 mm 3 mps 747 mmHg 38%
10:00 +26°C° 0 mm 3 mps 747 mmHg 37%
11:00 +27°C° 0 mm 4 mps 747 mmHg 36%
12:00 +27°C° 0 mm 4 mps 747 mmHg 34%
13:00 +27°C° 0 mm 4 mps 747 mmHg 36%
14:00 +27°C° 0 mm 4 mps 747 mmHg 38%
15:00 +26°C° 0 mm 4 mps 747 mmHg 40%
16:00 +26°C° 0 mm 4 mps 747 mmHg 43%
17:00 +25°C° 0 mm 3 mps 748 mmHg 45%
18:00 +24°C° 0 mm 3 mps 748 mmHg 48%
19:00 +22°C° 0 mm 3 mps 749 mmHg 51%
20:00 +21°C° 0 mm 3 mps 749 mmHg 55%
21:00 +20°C° 0 mm 3 mps 750 mmHg 58%
22:00 +19°C° 0 mm 3 mps 750 mmHg 63%
23:00 +18°C° 0 mm 3 mps 750 mmHg 69%

Tomorrow, 25 July, Sunday

Time Temperature Precipitation Wind Pressure Humidity
00:00 +17°C° 0 mm 2 mps 751 mmHg 74%
01:00 +16°C° 0 mm 2 mps 751 mmHg 79%
02:00 +15°C° 0 mm 2 mps 752 mmHg 84%
03:00 +14°C° 0 mm 2 mps 752 mmHg 89%
04:00 +14°C° 0 mm 3 mps 753 mmHg 81%
05:00 +16°C° 0 mm 3 mps 753 mmHg 74%
06:00 +17°C° 0 mm 3 mps 754 mmHg 66%
07:00 +19°C° 0 mm 3 mps 754 mmHg 57%
08:00 +20°C° 0 mm 4 mps 754 mmHg 47%
09:00 +22°C° 0 mm 4 mps 755 mmHg 38%
10:00 +23°C° 0 mm 4 mps 755 mmHg 35%
11:00 +23°C° 0 mm 4 mps 755 mmHg 33%
12:00 +25°C° 0 mm 4 mps 755 mmHg 30%
13:00 +25°C° 0 mm 4 mps 755 mmHg 29%
14:00 +25°C° 0 mm 5 mps 756 mmHg 27%
15:00 +26°C° 0 mm 5 mps 756 mmHg 25%
16:00 +25°C° 0 mm 5 mps 756 mmHg 27%
17:00 +23°C° 0 mm 4 mps 756 mmHg 29%
18:00 +22°C° 0 mm 4 mps 756 mmHg 32%
19:00 +20°C° 0 mm 3 mps 757 mmHg 36%
20:00 +18°C° 0 mm 3 mps 757 mmHg 41%
21:00 +16°C° 0 mm 2 mps 757 mmHg 46%
22:00 +15°C° 0 mm 2 mps 758 mmHg 48%
23:00 +14°C° 0 mm 2 mps 758 mmHg 50%

Day after tomorrow, 26 July, Monday

Time Temperature Precipitation Wind Pressure Humidity
00:00 +13°C° 0 mm 1 mps 758 mmHg 52%
01:00 +13°C° 0 mm 1 mps 758 mmHg 54%
02:00 +13°C° 0 mm 1 mps 758 mmHg 55%
03:00 +12°C° 0 mm 1 mps 759 mmHg 57%
04:00 +14°C° 0 mm 1 mps 759 mmHg 54%
05:00 +15°C° 0 mm 1 mps 759 mmHg 50%
06:00 +18°C° 0 mm 1 mps 759 mmHg 47%
07:00 +20°C° 0 mm 1 mps 759 mmHg 42%
08:00 +22°C° 0 mm 1 mps 759 mmHg 36%
09:00 +24°C° 0 mm 2 mps 759 mmHg 31%
10:00 +24°C° 0 mm 2 mps 759 mmHg 29%
11:00 +25°C° 0 mm 3 mps 759 mmHg 27%
12:00 +26°C° 0 mm 3 mps 759 mmHg 26%
13:00 +26°C° 0 mm 4 mps 758 mmHg 26%
14:00 +26°C° 0 mm 4 mps 758 mmHg 26%
15:00 +26°C° 0 mm 4 mps 758 mmHg 26%
16:00 +26°C° 0 mm 4 mps 758 mmHg 29%
17:00 +25°C° 0 mm 3 mps 758 mmHg 32%
18:00 +24°C° 0 mm 3 mps 758 mmHg 36%
19:00 +21°C° 0 mm 3 mps 758 mmHg 40%
20:00 +20°C° 0 mm 2 mps 758 mmHg 45%
21:00 +19°C° 0 mm 1 mps 758 mmHg 50%
22:00 +18°C° 0 mm 1 mps 758 mmHg 52%
23:00 +18°C° 0 mm 1 mps 758 mmHg 54%

27 July, Tuesday

Time Temperature Precipitation Wind Pressure Humidity
00:00 +16°C° 0 mm 1 mps 757 mmHg 56%
01:00 +16°C° 0 mm 1 mps 757 mmHg 56%
02:00 +16°C° 0 mm 1 mps 757 mmHg 56%
03:00 +16°C° 0 mm 1 mps 757 mmHg 55%
04:00 +18°C° 0 mm 1 mps 757 mmHg 53%
05:00 +18°C° 0 mm 2 mps 757 mmHg 51%
06:00 +19°C° 0 mm 2 mps 757 mmHg 49%
07:00 +20°C° 0 mm 3 mps 757 mmHg 46%
08:00 +22°C° 0 mm 3 mps 757 mmHg 43%
09:00 +23°C° 0 mm 4 mps 756 mmHg 39%
10:00 +25°C° 0 mm 4 mps 756 mmHg 36%
11:00 +27°C° 0 mm 4 mps 756 mmHg 32%
12:00 +28°C° 0 mm 5 mps 755 mmHg 29%
13:00 +28°C° 0 mm 4 mps 755 mmHg 29%
14:00 +28°C° 0 mm 4 mps 754 mmHg 30%
15:00 +28°C° 0 mm 4 mps 754 mmHg 30%
16:00 +27°C° 0 mm 3 mps 754 mmHg 34%
17:00 +26°C° 0 mm 3 mps 753 mmHg 37%
18:00 +26°C° 0 mm 2 mps 753 mmHg 40%
19:00 +24°C° 0 mm 2 mps 753 mmHg 47%
20:00 +21°C° 0 mm 2 mps 753 mmHg 53%
21:00 +20°C° 0 mm 2 mps 753 mmHg 59%
22:00 +20°C° 0.1 mm 1 mps 753 mmHg 64%
23:00 +19°C° 0.1 mm 1 mps 753 mmHg 69%

28 July, Wednesday

Time Temperature Precipitation Wind Pressure Humidity
00:00 +19°C° 0.1 mm 1 mps 753 mmHg 74%
01:00 +18°C° 0.1 mm 1 mps 753 mmHg 80%
02:00 +16°C° 0.1 mm 1 mps 752 mmHg 86%
03:00 +15°C° 0.1 mm 2 mps 752 mmHg 92%
04:00 +16°C° 0 mm 2 mps 753 mmHg 91%
05:00 +16°C° 0 mm 3 mps 753 mmHg 89%
06:00 +17°C° 0 mm 3 mps 753 mmHg 88%
07:00 +19°C° 0 mm 3 mps 753 mmHg 76%
08:00 +21°C° 0 mm 3 mps 753 mmHg 64%
09:00 +22°C° 0 mm 3 mps 753 mmHg 52%
10:00 +25°C° 0 mm 4 mps 753 mmHg 46%
11:00 +26°C° 0 mm 4 mps 752 mmHg 39%
12:00 +27°C° 0 mm 4 mps 752 mmHg 33%
13:00 +27°C° 0 mm 4 mps 752 mmHg 32%
14:00 +28°C° 0 mm 4 mps 752 mmHg 30%
15:00 +28°C° 0 mm 4 mps 752 mmHg 29%
16:00 +27°C° 0 mm 4 mps 752 mmHg 31%
17:00 +26°C° 0 mm 4 mps 751 mmHg 32%
18:00 +26°C° 0 mm 3 mps 751 mmHg 34%
19:00 +22°C° 0 mm 3 mps 751 mmHg 40%
20:00 +20°C° 0 mm 2 mps 752 mmHg 45%
21:00 +18°C° 0 mm 2 mps 752 mmHg 51%
22:00 +17°C° 0 mm 2 mps 752 mmHg 54%
23:00 +16°C° 0 mm 1 mps 751 mmHg 57%

29 July, Thursday

Time Temperature Precipitation Wind Pressure Humidity
00:00 +15°C° 0 mm 1 mps 751 mmHg 60%
01:00 +15°C° 0 mm 1 mps 751 mmHg 61%
02:00 +15°C° 0 mm 1 mps 751 mmHg 61%
03:00 +14°C° 0 mm 1 mps 751 mmHg 62%
04:00 +16°C° 0 mm 1 mps 751 mmHg 58%
05:00 +17°C° 0 mm 2 mps 751 mmHg 54%
06:00 +18°C° 0 mm 2 mps 751 mmHg 50%
07:00 +21°C° 0 mm 3 mps 751 mmHg 45%
08:00 +23°C° 0 mm 4 mps 750 mmHg 40%
09:00 +26°C° 0 mm 5 mps 750 mmHg 35%
10:00 +28°C° 0 mm 6 mps 750 mmHg 33%
11:00 +29°C° 0 mm 6 mps 749 mmHg 31%
12:00 +32°C° 0 mm 6 mps 749 mmHg 30%
13:00 +28°C° 0.4 mm 5 mps 749 mmHg 42%
14:00 +26°C° 0.4 mm 4 mps 748 mmHg 54%
15:00 +22°C° 0.4 mm 4 mps 748 mmHg 66%
16:00 +24°C° 0.1 mm 3 mps 748 mmHg 64%
17:00 +24°C° 0.1 mm 3 mps 748 mmHg 63%
18:00 +25°C° 0.1 mm 3 mps 747 mmHg 61%
19:00 +23°C° 0.7 mm 2 mps 747 mmHg 69%
20:00 +20°C° 0.7 mm 2 mps 748 mmHg 77%
21:00 +19°C° 0.7 mm 2 mps 748 mmHg 86%
22:00 +20°C° 0.4 mm 1 mps 748 mmHg 86%
23:00 +20°C° 0.4 mm 1 mps 748 mmHg 86%
Show more

We Need Your Consent

Meteoprog and our Service Providers may store and access personal data such as cookies, device identifiers or other similar technologies on your device and process such data to personalise content and ads, as well as provide social media features and to analyse the traffic.

  • Store and/or access information on your device

    Cookies, device identifiers or other information can be stored or accessed on your device for the purposes indicated above.

  • Personalised ads and content, ad and content measurement, audience insights, and products development

    Ads and content can be personalised based on a profile. More data can be added to better personalise ads and content. Ad and content performance can be measured. Insights about the audience who saw the ads and content can be derived. Such data can be used to develop or improve user’s experience, systems and software.

By clicking ‘I Agree’ you will allow the use of indicated cookies, device identifiers, web beacons or other similar technologies. Your settings can be changed in the browser on your device.

For certain purposes, legitimate interests may be relied on, rather than consent. You can read more about this in our Privacy and Cookie Policy.